Temperature
17 17 17 18 18 17 17 17 17 17 17 18 18 18 18 18 18 17 17 17 17 17 17 17 16 16 16 16 16 16 15 15 15 15 15 15 15 15
17 17 17 17 17 17 17 17 17 17 17 17 17 17 17 17 17 17 17 17 17 17 17 16 16 16 16 16 16 15 15 15 15 15 15 15 14 14
17 17 17 17 17 17 17 17 17 17 17 17 17 17 17 17 17 17 17 17 17 16 16 16 16 16 16 16 15 15 15 15 15 15 14 14 14 14
17 17 17 17 17 17 16 17 17 17 17 17 17 17 17 17 16 16 16 16 16 16 16 16 16 16 15 15 15 15 15 15 14 14 14 14 14 14
16 16 16 16 16 16 16 16 16 16 16 16 16 16 16 16 16 16 16 16 16 16 16 15 15 15 15 15 15 15 15 14 14 14 14 13 13 13
16 16 16 16 16 16 16 16 16 16 16 16 16 16 16 15 15 15 15 15 15 15 15 15 15 15 15 15 14 14 14 14 14 13 13 13 13 13
15 15 15 15 15 15 15 15 15 15 15 15 15 15 15 15 15 14 14 14 14 14 14 14 14 14 14 14 14 14 14 13 13 13 13 13 12 12
15 15 15 15 15 15 15 15 14 14 14 14 14 14 14 14 14 14 14 14 13 13 13 14 14 14 14 13 13 13 13 13 13 12 12 12 12 12
15 15 15 14 14 14 14 14 14 14 14 13 13 13 13 13 13 13 13 13 13 12 13 13 13 13 13 13 12 12 12 12 12 12 11 11 11 11
14 14 14 14 14 14 14 13 13 13 13 13 13 12 12 12 12 12 12 12 12 12 12 12 12 12 12 12 11 11 11 11 11 11 11 11 10 10
13 13 13 13 13 13 13 13 13 12 12 12 12 12 12 12 11 12 11 11 11 11 11 11 11 11 11 11 10 10 10 10 10 10 10 10 10 10
13 13 13 13 12 12 12 12 12 12 12 11 11 11 11 11 11 11 11 10 10 10 10 10 10 10 10 10 10 9 9 9 9 9 9 9 9 9
12 12 12 12 12 12 12 11 11 11 11 11 11 11 11 10 10 10 10 10 10 9 9 9 9 9 9 9 9 9 9 9 9 9 8 8 8 8
12 11 11 11 11 11 11 10 10 10 10 10 10 10 10 9 9 9 9 9 9 9 8 8 8 8 8 8 8 8 8 8 8 8 8 8 8 8
11 10 10 10 10 10 10 10 10 10 10 9 9 9 8 8 8 8 8 8 8 8 8 8 8 7 7 7 7 7 7 7 7 7 7 7 7 7
10 10 10 9 9 9 9 9 9 9 8 8 8 8 7 7 8 8 8 7 7 7 7 7 7 7 7 7 7 7 6 6 6 7 7 7 7 7
10 9 9 9 9 8 8 8 8 8 8 7 7 7 7 7 7 7 7 7 7 7 7 7 7 7 6 6 6 6 6 6 6 6 6 6 6 6
9 9 9 8 8 8 8 7 7 7 7 7 6 6 6 6 6 6 6 6 6 6 6 6 6 6 6 6 6 6 6 6 6 6 6 5 6 6
9 8 8 7 7 7 7 7 6 6 6 6 6 6 6 5 5 5 5 5 5 5 5 5 5 5 5 5 5 5 5 5 5 5 5 5 5 5
8 7 7 7 6 6 6 6 6 6 6 5 5 5 5 5 5 5 4 4 4 4 5 5 5 4 4 4 4 5 5 5 5 5 5 5 5 5
7 6 6 6 6 6 6 5 5 5 5 5 5 5 4 4 4 4 4 4 4 4 4 4 4 4 4 4 4 4 5 4 4 4 4 4 4 4
6 6 6 5 5 5 5 5 5 5 5 5 4 4 4 4 4 4 4 4 3 3 4 4 4 4 4 4 4 4 4 4 4 4 4 4 4 3
6 5 5 5 5 5 5 5 5 4 4 4 4 4 4 3 3 3 3 3 3 3 3 3 4 4 4 4 4 4 4 4 4 4 4 4 3 3
Wind_Speed
6 6 5 4 3 3 3 4 4 3 4 4 3 3 5 7 10 11 12 15 19 20 20 20 20 20 19 18 18 17 17 16 16 16 16 16 16 15
4 5 4 3 2 2 2 3 4 4 4 4 4 3 2 4 6 8 9 11 15 18 19 19 19 19 18 18 18 17 17 17 17 16 15 15 15 15
4 5 4 3 2 2 2 2 3 3 4 4 3 2 1 1 2 4 6 7 9 13 16 17 17 17 18 18 18 18 18 17 17 16 15 15 14 14
5 4 3 3 2 2 2 2 2 3 4 4 3 1 1 2 1 1 2 4 6 9 12 14 16 16 17 17 17 17 17 16 16 15 14 14 14 14
5 5 4 4 3 2 2 2 2 2 2 2 2 2 1 1 1 1 2 2 3 5 7 10 11 12 13 14 14 15 15 15 15 15 15 14 14 14
3 4 4 4 4 3 2 2 1 1 1 1 1 1 1 2 1 1 2 2 3 3 3 3 4 6 7 8 9 10 12 13 14 14 14 14 14 14
2 2 2 3 3 3 2 2 1 1 1 1 1 1 2 2 1 1 2 2 2 2 2 2 2 2 3 4 5 7 8 9 10 11 12 13 13 13
3 2 3 4 5 5 5 4 3 2 2 1 0 0 1 1 1 1 1 1 2 2 1 2 1 1 2 2 4 4 5 5 7 8 8 10 11 12
4 4 3 4 4 4 6 7 7 5 2 2 1 1 1 2 1 1 1 1 2 3 0 2 2 2 4 4 5 4 4 4 5 7 8 9 10 10
4 4 4 4 4 4 5 6 5 5 4 3 2 2 2 2 0 1 1 1 1 2 2 1 2 2 3 5 6 6 7 7 7 7 8 8 9 10
6 6 6 6 7 8 7 7 6 6 9 10 9 8 9 8 5 3 3 2 2 2 3 1 2 2 2 2 5 8 8 8 8 8 8 9 9 9
6 7 9 8 9 9 7 7 7 4 5 7 8 9 8 9 9 4 2 1 1 2 3 2 2 2 3 3 3 6 8 9 9 8 8 10 9 6
6 6 6 11 12 12 10 7 6 5 5 6 6 6 6 6 6 6 4 2 2 1 2 2 1 2 1 3 3 3 4 5 6 7 10 10 10 6
6 5 7 12 13 12 10 10 11 9 6 6 6 6 6 5 5 6 8 7 4 1 3 2 0 0 1 2 3 4 4 4 4 3 6 9 8 8
7 9 11 12 11 10 12 12 10 7 6 6 6 5 4 4 5 5 6 7 8 8 8 5 1 1 1 2 3 3 3 4 4 4 4 4 3 3
7 9 12 13 11 10 9 8 7 6 5 5 4 4 4 5 5 5 4 5 4 5 8 10 6 2 1 2 2 3 3 4 4 5 4 4 4 4
6 6 7 7 7 7 7 7 6 6 6 5 5 5 5 5 5 5 4 4 4 4 6 6 8 6 2 2 2 3 4 4 4 5 4 4 4 4
9 7 7 6 6 5 5 5 6 6 5 5 5 5 4 5 5 5 4 4 4 4 4 5 5 5 5 4 2 2 3 4 5 5 3 3 5 5
9 7 6 5 5 5 5 5 4 4 4 4 4 4 4 4 4 4 4 4 4 4 4 4 4 4 4 5 6 3 3 5 5 4 4 3 4 5
6 6 5 5 4 4 4 4 4 4 4 4 4 4 4 4 4 4 4 4 4 4 5 5 4 4 3 3 4 5 7 4 4 5 4 4 4 5
5 5 4 4 4 4 4 4 4 4 4 4 4 4 4 4 4 4 4 6 4 4 5 6 6 8 4 2 3 5 6 9 6 3 4 4 4 4
5 5 4 4 4 4 4 4 4 4 4 4 4 4 4 3 4 4 4 4 4 4 5 6 7 5 3 3 4 5 6 7 9 10 7 4 2 3
5 5 4 4 4 3 3 4 4 4 4 4 4 4 4 4 4 4 4 4 4 5 5 5 6 4 4 3 4 4 6 6 5 6 6 11 10 8
Wind_Direction
207 206 209 217 201 194 183 174 175 218 259 269 265 252 230 221 225 220 222 224 225 227 228 229 231 234 235 237 239 241 243 245 247 249 250 251 251 252
198 197 205 209 199 193 189 194 188 189 230 256 252 260 245 226 222 218 225 231 229 229 231 234 235 236 238 240 241 241 243 244 245 246 247 248 250 252
198 190 202 198 199 202 192 200 195 181 217 260 263 276 240 227 228 228 234 233 236 234 234 236 238 240 241 242 242 242 243 244 245 245 247 248 250 252
195 186 202 205 200 207 205 209 204 198 202 243 284 318 297 242 227 248 255 248 243 243 240 240 241 242 244 245 245 245 245 245 244 245 247 249 250 251
189 191 199 188 205 209 205 211 224 215 190 207 262 298 320 346 9 336 321 297 278 265 248 245 247 248 250 250 249 248 247 246 245 246 247 249 251 253
174 182 189 192 200 192 191 195 189 142 130 146 275 325 329 331 43 356 330 312 298 315 313 283 273 267 263 260 259 259 256 251 248 248 249 250 252 255
142 145 147 142 143 146 154 151 130 107 94 78 327 354 349 355 330 308 295 301 313 324 334 334 344 341 304 278 273 273 266 259 256 255 256 257 258 260
133 123 104 84 80 84 88 95 114 135 157 147 267 295 297 300 316 322 306 341 313 318 349 312 353 327 312 302 303 294 289 285 277 271 266 265 264 265
105 100 93 78 80 80 72 64 57 53 90 135 124 286 303 296 299 328 313 241 256 288 6 303 340 335 331 337 339 346 344 328 304 292 286 280 279 280
86 97 98 84 70 79 77 68 59 45 48 65 79 41 21 347 335 277 281 314 311 340 26 328 340 333 339 349 3 4 353 341 331 322 314 304 298 294
73 71 78 75 64 74 82 78 63 45 50 60 63 60 54 44 44 57 38 44 357 334 2 30 333 328 326 331 355 2 353 341 335 331 324 318 313 308
70 62 61 69 64 69 80 81 71 45 42 48 44 39 40 38 37 46 61 67 42 336 339 17 340 357 341 320 329 344 349 347 343 335 329 325 324 318
75 64 57 65 66 64 67 70 68 67 62 56 48 40 34 30 24 25 31 64 71 342 329 12 359 358 328 310 318 327 340 338 339 334 332 330 326 317
83 75 70 69 65 61 61 59 58 60 60 55 50 38 28 18 13 17 22 30 42 32 358 29 32 300 307 309 304 315 324 331 331 319 326 329 327 322
82 82 75 68 62 59 56 58 57 58 59 59 49 30 11 4 11 13 15 22 27 25 18 16 11 315 225 245 283 299 314 316 322 319 321 322 315 324
75 69 64 61 60 55 51 50 51 56 64 61 42 21 15 19 21 18 17 13 21 2 357 2 359 349 311 286 274 295 304 305 316 319 317 313 311 308
78 68 62 61 60 55 51 46 42 42 46 39 38 30 24 23 16 10 16 21 22 355 345 343 345 343 285 263 301 302 307 305 300 311 322 319 308 302
81 76 70 66 65 60 57 48 40 37 34 38 37 34 29 23 15 12 16 20 10 352 342 335 346 356 356 334 271 288 309 303 306 310 308 308 308 310
80 77 73 68 63 59 57 55 42 27 30 38 36 27 22 18 15 9 6 6 359 346 335 338 355 7 357 335 313 314 306 312 317 316 309 296 295 304
77 80 75 67 61 58 55 52 43 33 31 30 27 21 19 15 9 4 3 358 348 343 342 343 346 341 309 287 292 306 325 316 315 316 314 313 305 308
71 70 71 69 62 58 54 51 48 39 28 24 19 11 7 8 2 355 353 354 356 349 343 331 312 316 302 322 327 321 319 336 339 316 316 320 323 330
76 71 63 64 62 58 54 52 43 30 19 15 4 360 358 1 353 347 346 345 340 331 321 316 322 336 357 355 328 316 320 331 345 356 359 350 317 319
82 78 69 62 55 53 53 49 42 21 10 3 356 351 351 349 341 340 337 335 332 329 327 328 335 343 339 333 328 323 327 332 337 346 345 352 352 342
Height
1544 1545 1547 1548 1549 1550 1551 1552 1553 1552 1551 1551 1552 1552 1552 1552 1553 1554 1554 1554 1555 1555 1555 1555 1555 1556 1556 1556 1556 1556 1556 1555 1555 1555 1555 1555 1555 1555
1540 1541 1543 1544 1545 1546 1547 1548 1549 1549 1548 1548 1548 1548 1549 1549 1549 1550 1550 1550 1551 1551 1551 1551 1551 1551 1551 1551 1551 1551 1551 1551 1551 1551 1550 1550 1550 1550
1536 1537 1538 1540 1541 1542 1543 1544 1545 1545 1545 1545 1545 1545 1545 1545 1545 1546 1546 1546 1546 1546 1546 1546 1547 1547 1547 1547 1546 1546 1546 1546 1546 1546 1545 1545 1545 1544
1531 1533 1535 1536 1537 1538 1539 1540 1540 1541 1542 1541 1541 1541 1541 1541 1542 1542 1542 1542 1542 1542 1542 1542 1542 1542 1542 1542 1541 1541 1541 1541 1541 1540 1540 1540 1539 1538
1527 1529 1531 1532 1533 1534 1535 1536 1537 1537 1538 1538 1537 1538 1538 1538 1538 1538 1538 1538 1538 1538 1538 1538 1538 1537 1537 1537 1536 1536 1535 1535 1535 1534 1534 1533 1533 1532
1524 1526 1527 1529 1530 1531 1531 1532 1533 1534 1534 1534 1534 1534 1534 1534 1534 1533 1533 1533 1534 1534 1533 1533 1533 1532 1532 1531 1531 1531 1530 1530 1529 1528 1528 1527 1527 1526
1521 1523 1524 1526 1527 1527 1528 1528 1529 1530 1530 1530 1530 1530 1530 1530 1530 1529 1529 1529 1529 1529 1529 1528 1528 1528 1527 1527 1526 1526 1526 1525 1524 1523 1522 1522 1521 1520
1519 1520 1522 1523 1524 1525 1525 1526 1526 1527 1527 1527 1527 1527 1527 1527 1527 1526 1526 1525 1525 1525 1525 1524 1524 1523 1523 1522 1522 1522 1521 1520 1519 1518 1517 1516 1515 1515
1517 1518 1519 1521 1522 1522 1523 1523 1523 1524 1525 1525 1524 1524 1524 1524 1524 1523 1523 1522 1521 1521 1520 1520 1519 1519 1519 1518 1518 1517 1516 1515 1514 1513 1512 1511 1510 1508
1517 1518 1519 1520 1520 1521 1521 1521 1522 1522 1522 1522 1522 1522 1522 1521 1521 1521 1520 1519 1519 1517 1517 1516 1515 1515 1515 1514 1513 1512 1511 1510 1509 1508 1506 1505 1504 1503
1517 1518 1518 1519 1520 1520 1520 1520 1521 1521 1522 1521 1521 1521 1520 1519 1519 1518 1517 1516 1515 1514 1513 1513 1512 1511 1511 1510 1509 1508 1507 1506 1504 1503 1502 1500 1499 1497
1517 1518 1519 1519 1519 1519 1519 1520 1520 1521 1521 1521 1521 1520 1519 1519 1517 1516 1515 1514 1513 1512 1511 1511 1510 1509 1508 1507 1506 1505 1503 1502 1500 1499 1497 1496 1494 1492
1518 1519 1519 1520 1520 1520 1520 1520 1521 1521 1521 1521 1520 1520 1519 1518 1517 1516 1514 1513 1512 1511 1510 1509 1508 1507 1506 1505 1503 1502 1500 1499 1497 1495 1493 1491 1489 1487
1519 1520 1521 1522 1522 1522 1522 1522 1522 1522 1522 1521 1520 1519 1518 1517 1517 1515 1514 1513 1512 1511 1509 1508 1506 1505 1504 1502 1501 1499 1497 1496 1494 1491 1489 1487 1485 1483
1522 1523 1523 1524 1524 1524 1524 1524 1523 1523 1522 1521 1520 1520 1519 1518 1517 1515 1514 1513 1511 1510 1509 1507 1505 1504 1502 1501 1499 1497 1494 1492 1490 1488 1485 1483 1480 1478
1524 1524 1525 1525 1525 1525 1525 1525 1524 1523 1523 1522 1521 1521 1520 1518 1517 1515 1513 1512 1510 1509 1508 1506 1504 1502 1500 1499 1497 1494 1492 1490 1487 1485 1482 1479 1477 1474
1526 1526 1527 1527 1527 1526 1526 1526 1525 1524 1523 1523 1522 1521 1520 1518 1516 1515 1513 1512 1510 1508 1506 1505 1503 1501 1499 1497 1494 1492 1490 1487 1485 1482 1479 1476 1473 1471
1529 1528 1528 1528 1528 1528 1527 1527 1526 1525 1524 1523 1522 1521 1520 1518 1517 1515 1513 1511 1509 1507 1505 1503 1501 1498 1497 1495 1494 1490 1488 1485 1482 1480 1477 1473 1470 1468
1530 1530 1530 1530 1530 1529 1529 1528 1527 1526 1525 1524 1523 1521 1520 1518 1516 1515 1513 1511 1509 1507 1505 1503 1500 1497 1495 1492 1491 1490 1486 1483 1480 1477 1474 1471 1467 1465
1532 1532 1532 1532 1531 1531 1530 1529 1528 1527 1526 1524 1523 1521 1519 1518 1516 1514 1512 1510 1508 1506 1504 1502 1499 1497 1495 1493 1490 1487 1485 1481 1478 1475 1471 1468 1465 1462
1534 1534 1534 1533 1533 1532 1531 1530 1528 1527 1525 1524 1522 1521 1519 1518 1516 1514 1512 1510 1508 1506 1503 1501 1499 1497 1494 1492 1489 1485 1483 1480 1477 1473 1469 1466 1462 1459
1536 1536 1535 1535 1534 1533 1532 1530 1528 1527 1525 1523 1522 1520 1519 1517 1516 1514 1512 1509 1507 1505 1503 1501 1498 1495 1493 1490 1487 1484 1481 1478 1475 1472 1468 1465 1462 1458
1538 1537 1537 1536 1535 1533 1532 1530 1528 1526 1525 1523 1521 1520 1518 1517 1515 1513 1511 1509 1507 1505 1502 1499 1497 1494 1491 1489 1486 1483 1480 1477 1473 1470 1467 1465 1462 1460